Wind_Speed
13 15 15 15 12 13 13 13 11 12 13 13 12 13 16 10 17 16 18 15 13 11 9 8 15 14 14 13 14 14 15 15 15 17 17 16 16 19 21 18 16 15 17
14 15 15 15 15 14 11 13 14 12 13 13 14 14 14 14 16 17 18 14 14 11 13 12 13 15 14 15 14 14 15 17 17 17 16 15 17 19 20 20 19 17 19
15 18 17 17 14 12 12 15 18 14 13 12 12 13 14 15 16 17 18 20 19 16 16 16 16 17 16 16 17 17 19 20 20 20 18 17 19 20 22 23 23 22 21
18 19 20 16 12 10 10 12 14 15 14 12 11 11 12 12 13 14 15 15 16 17 19 20 21 21 20 20 21 20 20 22 23 23 21 20 21 21 24 25 27 27 26
21 21 21 20 16 14 12 11 14 15 14 12 13 11 11 13 13 14 14 14 15 16 18 19 20 20 20 22 24 24 24 24 25 26 26 26 26 24 26 26 27 27 26
22 20 23 22 20 16 15 16 15 13 15 15 14 14 14 15 14 14 16 17 18 19 18 18 18 17 18 19 21 22 24 25 28 29 29 28 28 27 28 30 30 30 29
23 24 25 23 22 20 19 19 16 15 18 18 17 17 16 17 18 20 20 20 18 18 19 21 22 24 25 26 25 26 26 25 27 29 30 29 31 30 33 36 37 36 35
24 28 26 26 23 22 22 21 20 19 20 21 21 21 20 21 21 21 22 22 22 23 24 23 23 24 24 25 27 29 29 30 31 33 34 34 35 37 43 40 37 40 41
22 24 24 26 25 24 24 22 23 24 21 21 22 24 23 23 22 22 24 24 24 26 27 26 26 27 27 29 32 34 35 35 37 38 39 37 37 35 32 34 35 36 39
19 19 22 22 22 24 24 24 24 24 24 24 23 23 24 24 23 23 25 25 26 29 29 29 28 28 29 31 32 32 29 28 31 33 34 35 36 36 35 37 35 38 39
22 23 23 23 24 26 26 26 24 25 24 22 22 20 20 20 19 18 19 20 21 22 22 24 24 24 23 22 19 17 17 18 20 22 25 28 31 34 37 38 41 44 44
24 25 22 22 25 25 24 22 23 23 21 20 18 16 16 16 17 17 18 18 18 17 17 16 16 16 16 15 13 11 6 7 10 13 15 16 16 18 27 36 39 37 39
26 24 22 21 21 20 20 19 20 20 18 17 15 14 15 15 16 16 17 15 14 13 13 12 11 10 9 8 6 6 8 11 13 16 18 18 18 17 18 23 23 22 25
28 25 24 20 20 20 19 19 19 18 16 15 14 14 14 15 16 16 15 13 11 10 9 7 4 1 2 4 7 8 10 12 15 17 16 16 15 12 7 6 4 5 6
31 29 24 21 21 19 18 17 16 16 15 14 14 14 15 15 17 16 15 13 11 10 9 8 7 7 7 8 8 10 11 14 17 17 15 14 13 16 15 13 9 10 11
34 30 26 25 23 21 18 17 16 16 15 15 16 16 16 17 17 16 15 14 13 12 12 12 12 11 10 9 10 11 13 14 15 15 14 12 10 9 11 10 12 13 14
37 34 31 26 23 20 17 16 16 16 17 17 19 19 17 15 14 15 16 16 16 16 15 14 13 13 11 10 11 12 13 13 13 13 12 10 8 6 5 7 8 7 5
43 39 32 27 23 19 17 17 17 18 18 19 18 16 15 14 14 14 15 15 14 13 13 12 12 12 10 9 11 12 13 13 12 12 10 7 5 5 5 5 5 4 5
44 40 35 29 23 19 18 18 17 18 17 16 15 15 14 13 12 11 11 11 11 11 11 11 11 11 10 10 12 12 12 11 10 8 5 4 4 4 3 3 4 5 6
43 37 34 28 22 17 17 19 18 18 17 14 13 12 13 12 11 11 11 11 11 11 12 11 11 11 11 11 10 11 9 7 6 5 4 3 3 4 5 5 4 4 3
37 35 33 34 24 25 21 22 21 18 17 12 8 8 9 12 12 12 12 11 12 12 12 12 11 12 12 10 9 8 8 6 5 6 5 6 6 6 6 7 7 7 8
38 32 30 23 24 26 20 24 22 18 18 12 9 4 4 6 8 10 12 13 12 12 13 14 13 12 11 10 10 8 8 7 7 7 7 8 8 7 9 9 10 10 10
43 34 25 20 21 22 25 27 20 17 13 11 9 5 5 7 7 10 11 10 10 10 11 12 12 11 10 11 12 10 10 9 9 9 9 9 9 9 9 9 10 10 10
32 26 25 20 21 21 24 21 16 17 12 6 8 5 6 11 7 6 8 7 10 9 10 11 11 11 11 10 9 11 11 9 9 10 10 9 8 8 9 9 10 11 11
30 28 27 23 23 21 19 15 16 16 14 10 8 8 9 11 8 4 6 8 7 6 7 9 10 11 13 11 10 9 10 10 10 10 10 11 10 9 10 12 14 15 15
30 30 27 25 20 15 15 12 13 16 17 16 12 14 10 12 8 4 3 4 4 5 5 5 7 8 8 8 9 10 10 12 13 12 12 15 15 15 16 20 23 23 23
Wind_Direction
272 253 229 221 219 213 212 219 212 226 220 218 216 215 214 236 227 246 249 252 254 263 271 226 223 230 235 240 251 257 257 262 264 251 261 267 272 266 265 270 272 276 286
258 245 224 216 217 216 206 218 228 244 229 230 233 235 230 232 240 254 247 245 251 248 253 239 232 238 236 237 243 248 250 251 256 259 271 262 278 277 270 271 276 275 278
249 234 224 227 223 233 243 219 222 227 226 221 229 236 237 237 243 249 242 250 253 251 249 249 246 248 245 248 251 252 252 253 257 258 259 263 266 271 273 274 274 274 272
251 242 230 233 229 225 217 207 208 217 219 218 223 226 230 230 235 244 247 248 251 253 254 253 252 254 258 260 260 258 254 255 259 262 263 258 256 262 266 271 274 272 267
251 251 230 230 230 224 214 211 216 219 224 221 228 223 221 230 235 243 249 250 247 248 250 254 256 256 256 257 259 260 262 261 261 264 263 263 262 259 263 263 265 268 274
258 257 235 228 228 230 222 219 225 225 235 235 242 245 241 244 245 248 251 251 253 255 253 255 258 259 260 262 263 261 259 261 264 264 267 271 271 267 265 264 263 260 259
258 235 230 230 230 237 237 232 229 232 236 243 243 243 250 251 251 252 255 261 262 265 264 262 261 262 261 262 265 264 263 269 271 270 270 268 271 273 272 264 261 261 261
229 225 227 232 236 240 242 240 238 241 243 245 249 251 251 255 257 259 259 260 263 264 266 269 270 270 270 271 271 272 270 272 272 272 275 276 275 278 280 264 261 258 260
219 224 230 237 243 245 245 243 247 251 251 252 254 254 253 255 257 260 260 260 266 270 274 275 274 271 269 268 269 270 271 274 274 277 278 279 278 275 282 265 261 262 263
226 233 240 244 250 253 253 253 252 254 255 254 254 255 260 262 262 262 262 266 269 273 277 280 280 279 279 278 276 274 276 277 278 279 277 277 275 269 268 268 268 270 269
230 239 248 257 256 255 252 249 247 249 250 253 255 257 258 261 265 266 264 266 267 269 272 275 278 280 281 283 285 283 287 286 288 288 283 278 274 271 268 267 268 268 271
233 242 249 253 250 249 243 240 242 244 246 250 251 254 258 262 263 264 267 268 270 274 280 281 283 282 279 276 276 287 291 305 307 305 303 298 298 289 273 268 265 270 267
234 244 250 247 243 238 238 236 238 240 240 244 246 251 255 260 262 264 267 269 271 275 278 282 285 278 272 260 235 264 282 296 308 317 317 317 304 297 297 285 271 277 282
229 239 246 239 233 232 233 234 235 235 238 244 250 254 255 259 262 262 261 259 256 262 273 283 276 268 239 251 272 278 294 309 319 326 329 335 344 340 343 11 9 306 328
227 230 234 226 221 218 219 223 229 238 250 259 261 260 260 260 258 255 250 247 246 255 268 269 257 258 259 263 271 285 305 314 319 327 333 344 4 22 27 45 47 18 6
220 223 215 209 215 216 217 223 231 240 247 257 263 264 266 259 249 249 250 249 249 254 257 260 260 263 262 267 281 296 303 308 316 322 331 343 354 13 20 34 21 37 55
211 219 208 203 206 209 213 222 230 239 249 258 264 264 257 248 241 241 245 246 244 245 248 251 249 253 257 256 273 285 293 303 310 314 324 332 341 356 351 345 358 13 15
213 214 204 201 202 209 215 227 239 243 251 259 254 244 242 239 239 238 237 239 239 240 240 239 238 248 264 277 282 287 296 301 304 312 321 324 339 345 354 348 345 336 335
209 206 203 201 203 211 220 231 239 249 252 247 245 238 230 230 232 233 233 232 230 227 227 230 239 253 264 281 285 287 290 297 302 303 308 330 332 325 330 345 357 1 1
206 204 206 204 205 222 232 243 247 255 250 227 230 233 226 225 228 230 232 233 231 231 233 240 248 256 267 275 279 283 287 288 294 296 301 307 315 315 316 317 322 319 311
201 204 208 213 233 253 236 249 257 258 244 211 220 230 225 230 230 229 232 232 234 235 240 245 251 259 264 268 270 260 263 266 280 288 298 300 305 305 302 305 303 302 299
193 203 212 231 258 224 231 254 256 250 241 202 209 236 264 264 244 235 232 235 235 235 239 240 240 241 248 253 249 254 264 270 273 277 277 279 285 295 299 291 290 287 286
192 198 215 223 231 221 230 240 244 225 207 213 203 227 278 289 261 236 236 244 246 233 232 235 233 230 226 233 243 251 249 249 256 258 270 282 283 290 290 289 290 289 289
191 201 204 223 232 223 225 230 217 214 198 190 167 210 279 307 284 236 233 242 230 221 221 214 225 234 233 236 249 263 264 257 253 262 278 289 294 300 307 312 312 309 306
189 199 208 226 230 222 222 221 198 195 209 198 193 234 240 294 304 247 210 208 208 209 230 239 243 248 257 267 267 261 267 281 289 286 287 292 296 302 306 308 306 305 304
184 195 209 215 220 209 217 229 211 212 217 227 229 212 251 285 285 254 221 196 206 234 276 286 282 270 268 279 293 293 294 298 288 292 299 306 298 297 302 305 303 299 298
Height
3172 3174 3175 3176 3178 3179 3181 3184 3187 3189 3191 3194 3196 3198 3199 3201 3203 3204 3205 3206 3207 3207 3207 3207 3210 3212 3213 3214 3215 3214 3215 3215 3215 3214 3213 3213 3213 3213 3213 3214 3214 3212 3210
3170 3171 3173 3175 3176 3177 3178 3181 3183 3185 3187 3189 3191 3193 3195 3198 3199 3200 3202 3203 3204 3204 3205 3205 3207 3207 3209 3210 3211 3210 3210 3209 3209 3209 3209 3208 3208 3207 3207 3206 3206 3205 3205
3167 3169 3171 3173 3173 3175 3176 3175 3178 3182 3184 3186 3187 3189 3190 3192 3194 3196 3198 3199 3199 3199 3201 3202 3202 3202 3203 3205 3205 3205 3205 3205 3203 3203 3204 3204 3203 3203 3202 3201 3200 3199 3198
3163 3165 3168 3170 3171 3172 3172 3173 3174 3177 3179 3181 3184 3185 3186 3187 3189 3191 3192 3193 3193 3194 3195 3196 3197 3197 3197 3198 3198 3198 3199 3199 3198 3197 3198 3198 3198 3197 3195 3194 3193 3193 3192
3160 3162 3165 3167 3168 3169 3169 3170 3172 3174 3175 3177 3180 3180 3182 3183 3184 3186 3186 3187 3187 3188 3189 3189 3190 3190 3190 3191 3191 3191 3192 3191 3191 3191 3190 3191 3191 3191 3189 3187 3185 3185 3185
3156 3158 3161 3163 3165 3166 3167 3168 3170 3170 3172 3173 3174 3175 3177 3178 3179 3179 3180 3180 3181 3182 3183 3184 3184 3183 3184 3184 3183 3183 3184 3183 3183 3182 3181 3181 3182 3182 3181 3180 3178 3177 3176
3151 3154 3156 3160 3161 3163 3164 3164 3165 3167 3168 3169 3169 3170 3170 3171 3173 3173 3174 3175 3175 3175 3175 3176 3177 3177 3177 3177 3177 3176 3177 3177 3176 3175 3173 3173 3172 3172 3171 3170 3169 3168 3168
3144 3148 3151 3154 3156 3158 3160 3160 3161 3162 3163 3163 3163 3163 3164 3165 3166 3167 3168 3168 3168 3168 3168 3169 3170 3170 3169 3169 3169 3169 3168 3168 3167 3165 3163 3163 3162 3161 3158 3157 3157 3156 3157
3139 3143 3146 3148 3151 3153 3156 3156 3157 3156 3156 3157 3157 3158 3158 3159 3159 3159 3160 3160 3161 3160 3161 3162 3162 3163 3163 3161 3160 3160 3160 3159 3157 3155 3153 3152 3151 3150 3146 3143 3145 3145 3144
3135 3138 3141 3143 3146 3147 3148 3150 3152 3150 3152 3152 3152 3153 3153 3153 3153 3153 3153 3153 3154 3154 3154 3153 3153 3153 3153 3153 3151 3150 3150 3150 3148 3147 3144 3142 3140 3140 3138 3136 3136 3134 3135
3130 3134 3136 3138 3139 3140 3141 3144 3146 3147 3147 3147 3148 3148 3148 3148 3146 3146 3146 3146 3147 3147 3148 3148 3147 3146 3145 3145 3144 3142 3142 3142 3140 3138 3136 3133 3130 3127 3126 3125 3125 3123 3122
3125 3127 3129 3131 3132 3133 3135 3137 3139 3141 3142 3142 3142 3143 3143 3143 3143 3142 3141 3141 3141 3142 3142 3143 3142 3141 3140 3139 3138 3138 3137 3136 3135 3133 3129 3126 3122 3118 3115 3113 3112 3111 3110
3120 3123 3123 3124 3128 3129 3131 3133 3135 3137 3137 3138 3137 3138 3138 3138 3138 3138 3137 3137 3137 3137 3138 3138 3138 3136 3135 3135 3135 3135 3134 3133 3130 3127 3124 3120 3116 3112 3107 3103 3102 3103 3102
3115 3117 3119 3120 3123 3126 3127 3130 3132 3133 3133 3133 3133 3133 3133 3133 3133 3133 3133 3132 3133 3133 3134 3134 3134 3134 3134 3134 3133 3132 3131 3129 3126 3124 3121 3116 3112 3107 3102 3099 3098 3098 3096
3109 3112 3114 3115 3116 3118 3120 3123 3126 3127 3127 3127 3128 3128 3129 3129 3129 3128 3129 3129 3129 3129 3130 3131 3131 3132 3132 3131 3130 3129 3127 3126 3123 3121 3118 3115 3111 3107 3103 3099 3098 3096 3094
3102 3107 3109 3109 3112 3113 3116 3118 3119 3120 3120 3120 3121 3122 3122 3122 3123 3123 3124 3124 3124 3125 3126 3127 3128 3129 3129 3128 3127 3125 3124 3123 3121 3119 3117 3114 3111 3108 3106 3103 3101 3098 3097
3095 3102 3103 3103 3106 3108 3111 3112 3113 3114 3115 3115 3115 3116 3116 3116 3117 3118 3118 3119 3120 3121 3122 3123 3125 3125 3125 3125 3123 3122 3121 3119 3118 3116 3114 3112 3109 3107 3106 3104 3102 3101 3100
3089 3097 3097 3098 3099 3102 3105 3107 3109 3110 3110 3109 3109 3109 3110 3110 3112 3113 3113 3114 3115 3115 3117 3119 3120 3121 3121 3120 3119 3119 3117 3116 3115 3113 3112 3110 3108 3107 3106 3104 3102 3100 3099
3081 3087 3090 3092 3095 3098 3100 3102 3102 3104 3103 3103 3104 3104 3105 3105 3105 3106 3107 3108 3109 3111 3113 3115 3116 3117 3117 3117 3116 3115 3114 3114 3113 3111 3110 3109 3108 3107 3105 3103 3101 3100 3099
3072 3079 3085 3089 3092 3094 3095 3097 3098 3099 3097 3098 3099 3099 3100 3099 3099 3100 3102 3103 3105 3107 3109 3111 3112 3113 3113 3113 3113 3112 3112 3111 3110 3109 3108 3107 3106 3105 3104 3103 3101 3099 3098
3063 3073 3080 3084 3087 3088 3091 3092 3092 3093 3093 3092 3093 3095 3095 3094 3094 3095 3096 3098 3101 3103 3105 3106 3108 3109 3109 3110 3110 3110 3110 3109 3108 3107 3106 3106 3104 3103 3102 3100 3099 3098 3098
3053 3064 3073 3077 3081 3082 3084 3086 3086 3087 3087 3088 3089 3090 3090 3089 3089 3090 3091 3093 3096 3098 3100 3102 3104 3105 3106 3106 3107 3107 3107 3106 3105 3104 3104 3103 3102 3100 3099 3098 3097 3096 3094
3042 3056 3068 3073 3076 3079 3081 3082 3082 3083 3084 3085 3085 3086 3087 3087 3087 3087 3088 3089 3091 3093 3096 3099 3100 3102 3103 3103 3104 3104 3104 3103 3102 3101 3100 3100 3099 3097 3096 3095 3094 3093 3091
3043 3054 3062 3070 3072 3076 3078 3077 3077 3079 3082 3083 3082 3083 3085 3085 3085 3084 3084 3087 3088 3090 3093 3096 3098 3099 3099 3100 3100 3099 3099 3099 3099 3097 3097 3097 3095 3094 3093 3092 3091 3090 3089
3042 3048 3056 3063 3069 3071 3072 3072 3072 3074 3077 3080 3081 3082 3082 3084 3084 3081 3082 3084 3086 3088 3090 3092 3094 3094 3095 3094 3095 3096 3096 3094 3094 3094 3093 3093 3092 3090 3089 3088 3087 3086 3084
3039 3049 3056 3061 3063 3064 3066 3066 3068 3070 3072 3076 3079 3080 3080 3081 3081 3081 3080 3082 3083 3085 3087 3089 3090 3091 3091 3091 3091 3092 3092 3092 3091 3090 3089 3089 3087 3085 3085 3084 3083 3081 3080